,,Stat6,,Stat2,,Stat8,,Stat9,,Stat10,,Wind1,,Wind1,
time,status,PA1M_AVG,status,PR1M_SUM,status,RH1M_AVG,status,SR1M_AVG,status,TA1M_AVG,status,W1dAve1m,status,W1sAve1m,
2008-05-31, 00:00:00,VALID,917.176,VALID,0,VALID,100,VALID,-0.0339617,VALID,19.426,VALID,167,VALID,0.847656,
2008-05-31, 00:01:00,VALID,917.154,VALID,0,VALID,100,VALID,-0.101885,VALID,19.4133,VALID,158,VALID,1.0069,
2008-05-31, 00:02:00,VALID,917.143,VALID,0,VALID,100,VALID,-0.0509425,VALID,19.4298,VALID,173,VALID,1.08947,
2008-05-31, 00:03:00,VALID,917.125,VALID,0,VALID,100,VALID,-0.0849042,VALID,19.4168,VALID,157,VALID,0.710938,
2008-05-31, 00:04:00,VALID,917.104,VALID,0,VALID,100,VALID,-0.0169808,VALID,19.4198,VALID,179,VALID,0.671494,
2008-05-31, 00:05:00,VALID,917.091,VALID,0,VALID,100,VALID,-0.0509425,VALID,19.4265,VALID,178,VALID,1.15458,
2008-05-31, 00:06:00,VALID,917.071,VALID,0,VALID,100,VALID,-0.0339617,VALID,19.423,VALID,167,VALID,1.05529,
2008-05-31, 00:07:00,VALID,917.068,VALID,0,VALID,100,VALID,-0.0679233,VALID,19.4233,VALID,171,VALID,0.829578,
2008-05-31, 00:08:00,VALID,917.05,VALID,0,VALID,100,VALID,-0.0679233,VALID,19.4268,VALID,176,VALID,1.15216,
2008-05-31, 00:09:00,VALID,917.047,VALID,0,VALID,100,VALID,-0.0679233,VALID,19.4135,VALID,182,VALID,1.25991,
2008-05-31, 00:10:00,VALID,917.037,VALID,0,VALID,100,VALID,-0.0849042,VALID,19.4038,VALID,183,VALID,1.59077,
2008-05-31, 00:11:00,VALID,917.031,VALID,0,VALID,100,VALID,-0.0849042,VALID,19.4038,VALID,172,VALID,1.22986,
2008-05-31, 00:12:00,VALID,917.018,VALID,0,VALID,100,VALID,-0.101885,VALID,19.4105,VALID,160,VALID,0.951172,
2008-05-31, 00:13:00,VALID,917.022,VALID,0,VALID,100,VALID,-0.0339617,VALID,19.4073,VALID,183,VALID,1.01235,
2008-05-31, 00:14:00,VALID,917.015,VALID,0,VALID,100,VALID,-0.0849042,VALID,19.3941,VALID,178,VALID,0.865184,
2008-05-31, 00:15:00,VALID,916.998,VALID,0,VALID,100,VALID,-0.0339617,VALID,19.3809,VALID,179,VALID,0.926482,
2008-05-31, 00:16:00,VALID,916.989,VALID,0,VALID,100,VALID,-0.0509425,VALID,19.3846,VALID,173,VALID,0.931212,
2008-05-31, 00:17:00,VALID,916.968,VALID,0,VALID,100,VALID,-0.0679233,VALID,19.3841,VALID,162,VALID,1.63172,
2008-05-31, 00:18:00,VALID,916.957,VALID,0,VALID,100,VALID,-0.0679233,VALID,19.4008,VALID,186,VALID,0.568677,
2008-05-31, 00:19:00,VALID,916.941,VALID,0,VALID,100,VALID,-0.0509425,VALID,19.3976,VALID,169,VALID,1.01823,
2008-05-31, 00:20:00,VALID,916.931,VALID,0,VALID,100,VALID,-0.0509425,VALID,19.4006,VALID,170,VALID,1.23867,
2008-05-31, 00:21:00,VALID,916.925,VALID,0,VALID,100,VALID,-0.0339617,VALID,19.3973,VALID,177,VALID,0.733631,
2008-05-31, 00:22:00,VALID,916.931,VALID,0,VALID,100,VALID,-0.0509425,VALID,19.3938,VALID,185,VALID,0.924805,
2008-05-31, 00:23:00,VALID,916.915,VALID,0,VALID,100,VALID,0,VALID,19.3869,VALID,170,VALID,0.842262,
2008-05-31, 00:24:00,VALID,916.913,VALID,0,VALID,100,VALID,-0.0169808,VALID,19.3776,VALID,156,VALID,0.544017,
2008-05-31, 00:25:00,VALID,916.902,VALID,0,VALID,100,VALID,-0.0679233,VALID,19.3646,VALID,160,VALID,1.12773,
2008-05-31, 00:26:00,VALID,916.871,VALID,0,VALID,100,VALID,-0.0509425,VALID,19.3649,VALID,146,VALID,0.734375,
2008-05-31, 00:27:00,VALID,916.854,VALID,0,VALID,100,VALID,-0.0849042,VALID,19.3582,VALID,160,VALID,1.00418,
2008-05-31, 00:28:00,VALID,916.845,VALID,0,VALID,100,VALID,-0.0339617,VALID,19.3452,VALID,170,VALID,1.17044,
2008-05-31, 00:29:00,VALID,916.836,VALID,0,VALID,100,VALID,-0.0339617,VALID,19.3554,VALID,161,VALID,1.41592,
2008-05-31, 00:30:00,VALID,916.83,VALID,0,VALID,100,VALID,-0.0509425,VALID,19.3554,VALID,166,VALID,1.31417,
2008-05-31, 00:31:00,VALID,916.8,VALID,0,VALID,100,VALID,-0.0339617,VALID,19.3384,VALID,177,VALID,0.994368,
2008-05-31, 00:32:00,VALID,916.78,VALID,0,VALID,100,VALID,-0.0169808,VALID,19.3619,VALID,175,VALID,1.33775,
2008-05-31, 00:33:00,VALID,916.771,VALID,0,VALID,100,VALID,0,VALID,19.3452,VALID,178,VALID,1.46633,
2008-05-31, 00:34:00,VALID,916.761,VALID,0,VALID,100,VALID,-0.0339617,VALID,19.3317,VALID,166,VALID,1.20427,
2008-05-31, 00:35:00,VALID,916.76,VALID,0,VALID,100,VALID,-0.0849042,VALID,19.3354,VALID,157,VALID,0.999238,
2008-05-31, 00:36:00,VALID,916.763,VALID,0,VALID,100,VALID,-0.0169808,VALID,19.3352,VALID,144,VALID,0.63681,
2008-05-31, 00:37:00,VALID,916.738,VALID,0,VALID,100,VALID,-0.0339617,VALID,19.3454,VALID,135,VALID,1.10309,
2008-05-31, 00:38:00,VALID,916.718,VALID,0,VALID,100,VALID,-0.0339617,VALID,19.335,VALID,154,VALID,0.484375,
2008-05-31, 00:39:00,VALID,916.716,VALID,0,VALID,100,VALID,0,VALID,19.3315,VALID,146,VALID,0.969494,
2008-05-31, 00:40:00,VALID,916.715,VALID,0,VALID,100,VALID,-0.0169808,VALID,19.3217,VALID,140,VALID,0.879383,
2008-05-31, 00:41:00,VALID,916.715,VALID,0,VALID,100,VALID,-0.0169808,VALID,19.3282,VALID,147,VALID,0.897507,
2008-05-31, 00:42:00,VALID,916.71,VALID,0,VALID,100,VALID,0,VALID,19.3247,VALID,157,VALID,1.05759,
2008-05-31, 00:43:00,VALID,916.707,VALID,0,VALID,100,VALID,-0.0169808,VALID,19.3245,VALID,163,VALID,1.53184,
2008-05-31, 00:44:00,VALID,916.709,VALID,0,VALID,100,VALID,0,VALID,19.3342,VALID,151,VALID,1.36773,
2008-05-31, 00:45:00,VALID,916.706,VALID,0,VALID,100,VALID,-0.0169808,VALID,19.3312,VALID,141,VALID,1.09718,
2008-05-31, 00:46:00,VALID,916.7,VALID,0,VALID,100,VALID,0,VALID,19.3345,VALID,154,VALID,0.936228,
2008-05-31, 00:47:00,VALID,916.693,VALID,0,VALID,100,VALID,-0.0339617,VALID,19.3382,VALID,150,VALID,1.30977,
2008-05-31, 00:48:00,VALID,916.689,VALID,0,VALID,100,VALID,0,VALID,19.328,VALID,139,VALID,1.54985,
2008-05-31, 00:49:00,VALID,916.662,VALID,0,VALID,100,VALID,-0.0169808,VALID,19.3312,VALID,176,VALID,1.02753,
2008-05-31, 00:50:00,VALID,916.677,VALID,0,VALID,100,VALID,-0.0169808,VALID,19.328,VALID,146,VALID,1.14844,
2008-05-31, 00:51:00,VALID,916.667,VALID,0,VALID,100,VALID,-0.0339617,VALID,19.3185,VALID,147,VALID,0.962271,
2008-05-31, 00:52:00,VALID,916.664,VALID,0,VALID,100,VALID,0,VALID,19.3085,VALID,145,VALID,0.50436,
2008-05-31, 00:53:00,VALID,916.653,VALID,0,VALID,100,VALID,-0.0169808,VALID,19.3055,VALID,155,VALID,1.41016,
2008-05-31, 00:54:00,VALID,916.629,VALID,0,VALID,100,VALID,0,VALID,19.3053,VALID,151,VALID,1.12109,
2008-05-31, 00:55:00,VALID,916.617,VALID,0,VALID,100,VALID,-0.0339617,VALID,19.2988,VALID,157,VALID,1.42496,
2008-05-31, 00:56:00,VALID,916.585,VALID,0,VALID,100,VALID,-0.0339617,VALID,19.2988,VALID,144,VALID,1.39267,
2008-05-31, 00:57:00,VALID,916.572,VALID,0,VALID,100,VALID,-0.0339617,VALID,19.2923,VALID,169,VALID,1.39348,
2008-05-31, 00:58:00,VALID,916.561,VALID,0,VALID,100,VALID,0,VALID,19.2923,VALID,157,VALID,1.27671,
2008-05-31, 00:59:00,VALID,916.542,VALID,0,VALID,100,VALID,0,VALID,19.289,VALID,161,VALID,1.85342,
2008-05-31, 01:00:00,VALID,916.537,VALID,0,VALID,100,VALID,-0.0339617,VALID,19.2826,VALID,169,VALID,1.96434,
2008-05-31, 01:01:00,VALID,916.524,VALID,0,VALID,100,VALID,-0.0509425,VALID,19.2796,VALID,166,VALID,1.12221,
2008-05-31, 01:02:00,VALID,916.522,VALID,0,VALID,100,VALID,-0.0339617,VALID,19.2731,VALID,166,VALID,1.7956,
2008-05-31, 01:03:00,VALID,916.51,VALID,0,VALID,100,VALID,-0.0169808,VALID,19.2663,VALID,160,VALID,1.32831,
2008-05-31, 01:04:00,VALID,916.512,VALID,0,VALID,100,VALID,-0.0169808,VALID,19.2696,VALID,169,VALID,1.79249,
2008-05-31, 01:05:00,VALID,916.505,VALID,0,VALID,100,VALID,0,VALID,19.2534,VALID,151,VALID,1.7167,
2008-05-31, 01:06:00,VALID,916.502,VALID,0,VALID,100,VALID,-0.0169808,VALID,19.2429,VALID,163,VALID,1.85861,
2008-05-31, 01:07:00,VALID,916.465,VALID,0,VALID,100,VALID,-0.0169808,VALID,19.2603,VALID,161,VALID,2.2332,
2008-05-31, 01:08:00,VALID,916.448,VALID,0,VALID,100,VALID,-0.0509425,VALID,19.2566,VALID,174,VALID,1.57478,
2008-05-31, 01:09:00,VALID,916.442,VALID,0,VALID,100,VALID,0,VALID,19.2631,VALID,164,VALID,2.02363,
2008-05-31, 01:10:00,VALID,916.424,VALID,0,VALID,100,VALID,0,VALID,19.2469,VALID,154,VALID,1.94171,
2008-05-31, 01:11:00,VALID,916.422,VALID,0,VALID,100,VALID,-0.0169808,VALID,19.2304,VALID,153,VALID,1.55342,
2008-05-31, 01:12:00,VALID,916.428,VALID,0,VALID,100,VALID,0,VALID,19.2142,VALID,145,VALID,1.82552,
2008-05-31, 01:13:00,VALID,916.42,VALID,0,VALID,100,VALID,0,VALID,19.2144,VALID,160,VALID,1.75076,
2008-05-31, 01:14:00,VALID,916.412,VALID,0,VALID,100,VALID,-0.0169808,VALID,19.2114,VALID,160,VALID,1.49257,
2008-05-31, 01:15:00,VALID,916.43,VALID,0,VALID,100,VALID,-0.0169808,VALID,19.2274,VALID,164,VALID,1.96205,
2008-05-31, 01:16:00,VALID,916.418,VALID,0,VALID,100,VALID,0,VALID,19.2401,VALID,167,VALID,1.68714,
2008-05-31, 01:17:00,VALID,916.422,VALID,0,VALID,100,VALID,-0.0169808,VALID,19.2364,VALID,168,VALID,1.78872,
2008-05-31, 01:18:00,VALID,916.415,VALID,0,VALID,100,VALID,0,VALID,19.2339,VALID,158,VALID,1.60392,
2008-05-31, 01:19:00,VALID,916.414,VALID,0,VALID,100,VALID,0,VALID,19.2404,VALID,169,VALID,1.68663,
2008-05-31, 01:20:00,VALID,916.413,VALID,0,VALID,100,VALID,0,VALID,19.2304,VALID,170,VALID,1.30596,
2008-05-31, 01:21:00,VALID,916.414,VALID,0,VALID,100,VALID,0,VALID,19.2341,VALID,165,VALID,1.91543,
2008-05-31, 01:22:00,VALID,916.419,VALID,0,VALID,100,VALID,-0.0169808,VALID,19.2142,VALID,169,VALID,1.17987,
2008-05-31, 01:23:00,VALID,916.425,VALID,0,VALID,100,VALID,-0.0339617,VALID,19.2114,VALID,158,VALID,1.49219,
2008-05-31, 01:24:00,VALID,916.418,VALID,0,VALID,100,VALID,0,VALID,19.2047,VALID,168,VALID,1.41406,
2008-05-31, 01:25:00,VALID,916.418,VALID,0,VALID,100,VALID,-0.0169808,VALID,19.211,VALID,180,VALID,1.92315,
2008-05-31, 01:26:00,VALID,916.438,VALID,0,VALID,100,VALID,0,VALID,19.2112,VALID,165,VALID,1.65396,
2008-05-31, 01:27:00,VALID,916.418,VALID,0,VALID,100,VALID,-0.0169808,VALID,19.2177,VALID,172,VALID,1.88605,
2008-05-31, 01:28:00,VALID,916.404,VALID,0,VALID,100,VALID,-0.0169808,VALID,19.2242,VALID,163,VALID,1.50764,
2008-05-31, 01:29:00,VALID,916.393,VALID,0,VALID,100,VALID,0,VALID,19.2242,VALID,160,VALID,1.52039,
2008-05-31, 01:30:00,VALID,916.377,VALID,0,VALID,100,VALID,-0.0169808,VALID,19.2239,VALID,165,VALID,0.858445,
2008-05-31, 01:31:00,VALID,916.356,VALID,0,VALID,100,VALID,-0.0169808,VALID,19.2207,VALID,168,VALID,1.67031,
2008-05-31, 01:32:00,VALID,916.348,VALID,0,VALID,100,VALID,0.0509425,VALID,19.2137,VALID,165,VALID,1.81157,
2008-05-31, 01:33:00,VALID,916.334,VALID,0,VALID,100,VALID,0,VALID,19.211,VALID,181,VALID,1.8423,
2008-05-31, 01:34:00,VALID,916.326,VALID,0,VALID,100,VALID,0,VALID,19.2207,VALID,178,VALID,1.04821,
2008-05-31, 01:35:00,VALID,916.318,VALID,0,VALID,100,VALID,0,VALID,19.2207,VALID,166,VALID,1.15752,
2008-05-31, 01:36:00,VALID,916.305,VALID,0,VALID,100,VALID,0.0169808,VALID,19.2307,VALID,171,VALID,0.748884,
2008-05-31, 01:37:00,VALID,916.306,VALID,0,VALID,100,VALID,0,VALID,19.2242,VALID,170,VALID,0.954013,
2008-05-31, 01:38:00,VALID,916.316,VALID,0,VALID,100,VALID,-0.0339617,VALID,19.2084,VALID,172,VALID,1.1321,
2008-05-31, 01:39:00,VALID,916.307,VALID,0,VALID,100,VALID,-0.0339617,VALID,19.1792,VALID,144,VALID,1.03534,
2008-05-31, 01:40:00,VALID,916.307,VALID,0,VALID,100,VALID,-0.0339617,VALID,19.1825,VALID,92,VALID,0.385298,
2008-05-31, 01:41:00,VALID,916.286,VALID,0,VALID,100,VALID,0,VALID,19.182,VALID,136,VALID,0.078125,
2008-05-31, 01:42:00,VALID,916.283,VALID,0,VALID,100,VALID,-0.0509425,VALID,19.1897,VALID,150,VALID,0.0843023,
2008-05-31, 01:43:00,VALID,916.28,VALID,0,VALID,100,VALID,-0.0509425,VALID,19.1658,VALID,252,VALID,0.831731,
2008-05-31, 01:44:00,VALID,916.27,VALID,0,VALID,100,VALID,-0.0509425,VALID,19.1595,VALID,260,VALID,0.720203,
2008-05-31, 01:45:00,VALID,916.266,VALID,0,VALID,100,VALID,-0.0169808,VALID,19.1658,VALID,260,VALID,0.00247713,
2008-05-31, 01:46:00,VALID,916.252,VALID,0,VALID,100,VALID,0,VALID,19.1663,VALID,260,VALID,0,
2008-05-31, 01:47:00,VALID,916.246,VALID,0,VALID,100,VALID,-0.0339617,VALID,19.1496,VALID,260,VALID,0,
2008-05-31, 01:48:00,VALID,916.253,VALID,0,VALID,100,VALID,-0.0169808,VALID,19.1598,VALID,260,VALID,0,
2008-05-31, 01:49:00,VALID,916.258,VALID,0,VALID,100,VALID,-0.0339617,VALID,19.1563,VALID,318,VALID,0.0472384,
2008-05-31, 01:50:00,VALID,916.272,VALID,0,VALID,100,VALID,-0.0679233,VALID,19.1301,VALID,4,VALID,0.811612,
2008-05-31, 01:51:00,VALID,916.28,VALID,0,VALID,100,VALID,-0.0509425,VALID,19.1042,VALID,6,VALID,0.226563,
2008-05-31, 01:52:00,VALID,916.277,VALID,0,VALID,100,VALID,-0.0849042,VALID,19.0979,VALID,6,VALID,0,
2008-05-31, 01:53:00,VALID,916.272,VALID,0,VALID,100,VALID,-0.0339617,VALID,19.0687,VALID,6,VALID,0,
2008-05-31, 01:54:00,VALID,916.266,VALID,0,VALID,100,VALID,-0.0339617,VALID,19.039,VALID,6,VALID,0.158668,
2008-05-31, 01:55:00,VALID,916.264,VALID,0,VALID,100,VALID,0,VALID,19.036,VALID,6,VALID,0.478299,
2008-05-31, 01:56:00,VALID,916.252,VALID,0,VALID,100,VALID,0,VALID,19.0066,VALID,18,VALID,0.888021,
2008-05-31, 01:57:00,VALID,916.245,VALID,0,VALID,100,VALID,-0.0169808,VALID,18.9811,VALID,28,VALID,1.03544,
2008-05-31, 01:58:00,VALID,916.24,VALID,0,VALID,100,VALID,-0.0169808,VALID,18.964,VALID,36,VALID,0.84184,
2008-05-31, 01:59:00,VALID,916.22,VALID,0,VALID,100,VALID,0,VALID,18.9549,VALID,45,VALID,0.791211,
2008-05-31, 02:00:00,VALID,916.215,VALID,0,VALID,100,VALID,-0.0339617,VALID,18.9454,VALID,50,VALID,0.525534,
2008-05-31, 02:01:00,VALID,916.21,VALID,0,VALID,100,VALID,-0.0169808,VALID,18.9397,VALID,50,VALID,0.577009,
2008-05-31, 02:02:00,VALID,916.202,VALID,0,VALID,100,VALID,-0.0169808,VALID,18.9033,VALID,51,VALID,0.821801,
2008-05-31, 02:03:00,VALID,916.191,VALID,0,VALID,100,VALID,-0.0169808,VALID,18.8966,VALID,55,VALID,0.976042,
2008-05-31, 02:04:00,VALID,916.203,VALID,0,VALID,100,VALID,-0.0339617,VALID,18.8966,VALID,65,VALID,1.25089,
2008-05-31, 02:05:00,VALID,916.195,VALID,0,VALID,100,VALID,0,VALID,18.9163,VALID,66,VALID,1.29669,
2008-05-31, 02:06:00,VALID,916.195,VALID,0,VALID,100,VALID,-0.0169808,VALID,18.942,VALID,68,VALID,1.46839,
2008-05-31, 02:07:00,VALID,916.191,VALID,0,VALID,100,VALID,0,VALID,18.9712,VALID,72,VALID,1.68579,
2008-05-31, 02:08:00,VALID,916.187,VALID,0,VALID,100,VALID,-0.0169808,VALID,18.9874,VALID,70,VALID,1.519,
2008-05-31, 02:09:00,VALID,916.193,VALID,0,VALID,100,VALID,0,VALID,18.9712,VALID,68,VALID,1.56868,
2008-05-31, 02:10:00,VALID,916.193,VALID,0,VALID,100,VALID,-0.0169808,VALID,18.9644,VALID,66,VALID,1.13427,
2008-05-31, 02:11:00,VALID,916.191,VALID,0,VALID,100,VALID,-0.0169808,VALID,18.9614,VALID,71,VALID,0.589208,
2008-05-31, 02:12:00,VALID,916.2,VALID,0,VALID,100,VALID,-0.0169808,VALID,18.9517,VALID,72,VALID,0,
2008-05-31, 02:13:00,VALID,916.203,VALID,0,VALID,100,VALID,-0.0339617,VALID,18.942,VALID,71,VALID,0,
2008-05-31, 02:14:00,VALID,916.198,VALID,0,VALID,100,VALID,-0.0339617,VALID,18.9387,VALID,71,VALID,0,
2008-05-31, 02:15:00,VALID,916.187,VALID,0,VALID,100,VALID,-0.0169808,VALID,18.9227,VALID,71,VALID,0,
2008-05-31, 02:16:00,VALID,916.177,VALID,0,VALID,100,VALID,-0.0509425,VALID,18.926,VALID,72,VALID,0,
2008-05-31, 02:17:00,VALID,916.173,VALID,0,VALID,100,VALID,0,VALID,18.9257,VALID,94,VALID,0.299826,
2008-05-31, 02:18:00,VALID,916.18,VALID,0,VALID,100,VALID,-0.0509425,VALID,18.8901,VALID,123,VALID,0.615916,
2008-05-31, 02:19:00,VALID,916.155,VALID,0,VALID,100,VALID,-0.0509425,VALID,18.8806,VALID,124,VALID,0.760356,
2008-05-31, 02:20:00,VALID,916.137,VALID,0,VALID,100,VALID,-0.0679233,VALID,18.8681,VALID,125,VALID,0.730015,
2008-05-31, 02:21:00,VALID,916.118,VALID,0,VALID,100,VALID,-0.0509425,VALID,18.8449,VALID,122,VALID,1.22228,
2008-05-31, 02:22:00,VALID,916.108,VALID,0,VALID,100,VALID,-0.0509425,VALID,18.8447,VALID,122,VALID,0.897529,
2008-05-31, 02:23:00,VALID,916.104,VALID,0,VALID,100,VALID,-0.0169808,VALID,18.8576,VALID,124,VALID,0.952943,
2008-05-31, 02:24:00,VALID,916.077,VALID,0,VALID,100,VALID,-0.0339617,VALID,18.8507,VALID,137,VALID,0.664595,
2008-05-31, 02:25:00,VALID,916.065,VALID,0,VALID,100,VALID,0,VALID,18.8544,VALID,131,VALID,0.595982,
2008-05-31, 02:26:00,VALID,916.054,VALID,0,VALID,100,VALID,-0.0169808,VALID,18.8579,VALID,115,VALID,0.963224,
2008-05-31, 02:27:00,VALID,916.046,VALID,0,VALID,100,VALID,-0.0849042,VALID,18.8447,VALID,126,VALID,1.49638,
2008-05-31, 02:28:00,VALID,916.046,VALID,0,VALID,100,VALID,-0.0339617,VALID,18.8681,VALID,120,VALID,1.34414,
2008-05-31, 02:29:00,VALID,916.024,VALID,0,VALID,100,VALID,-0.0169808,VALID,18.8641,VALID,120,VALID,0.755327,
2008-05-31, 02:30:00,VALID,916.025,VALID,0,VALID,100,VALID,-0.0169808,VALID,18.8576,VALID,132,VALID,0.675145,
2008-05-31, 02:31:00,VALID,916.018,VALID,0,VALID,100,VALID,-0.0169808,VALID,18.8576,VALID,157,VALID,0.852896,
2008-05-31, 02:32:00,VALID,916.018,VALID,0,VALID,100,VALID,0,VALID,18.8444,VALID,147,VALID,0.240007,
2008-05-31, 02:33:00,VALID,916.014,VALID,0,VALID,100,VALID,-0.0169808,VALID,18.8252,VALID,117,VALID,0,
2008-05-31, 02:34:00,VALID,916.019,VALID,0,VALID,100,VALID,-0.0169808,VALID,18.8152,VALID,117,VALID,0.00114329,
2008-05-31, 02:35:00,VALID,916.028,VALID,0,VALID,100,VALID,-0.0679233,VALID,18.809,VALID,119,VALID,0.130269,
2008-05-31, 02:36:00,VALID,916.017,VALID,0,VALID,100,VALID,-0.0509425,VALID,18.7898,VALID,149,VALID,0.161272,
2008-05-31, 02:37:00,VALID,916.001,VALID,0,VALID,100,VALID,-0.0339617,VALID,18.7995,VALID,266,VALID,0.921317,
2008-05-31, 02:38:00,VALID,915.983,VALID,0,VALID,100,VALID,-0.0339617,VALID,18.8382,VALID,266,VALID,0.204459,
2008-05-31, 02:39:00,VALID,915.957,VALID,0,VALID,100,VALID,-0.0169808,VALID,18.8477,VALID,266,VALID,0,
2008-05-31, 02:40:00,VALID,915.952,VALID,0,VALID,100,VALID,-0.0509425,VALID,18.8609,VALID,277,VALID,0,
2008-05-31, 02:41:00,VALID,915.938,VALID,0,VALID,100,VALID,-0.0339617,VALID,18.8609,VALID,283,VALID,0,
2008-05-31, 02:42:00,VALID,915.94,VALID,0,VALID,100,VALID,-0.0339617,VALID,18.8706,VALID,283,VALID,0,
2008-05-31, 02:43:00,VALID,915.925,VALID,0,VALID,100,VALID,-0.0339617,VALID,18.8674,VALID,283,VALID,0,
2008-05-31, 02:44:00,VALID,915.921,VALID,0,VALID,100,VALID,-0.0169808,VALID,18.8674,VALID,283,VALID,0,
2008-05-31, 02:45:00,VALID,915.922,VALID,0,VALID,100,VALID,-0.0169808,VALID,18.8644,VALID,283,VALID,0,
2008-05-31, 02:46:00,VALID,915.926,VALID,0,VALID,100,VALID,-0.0339617,VALID,18.8576,VALID,283,VALID,0,
2008-05-31, 02:47:00,VALID,915.934,VALID,0,VALID,100,VALID,-0.0679233,VALID,18.8584,VALID,283,VALID,0,
2008-05-31, 02:48:00,VALID,915.932,VALID,0,VALID,100,VALID,-0.0849042,VALID,18.8486,VALID,283,VALID,0,
2008-05-31, 02:49:00,VALID,915.931,VALID,0,VALID,100,VALID,-0.0169808,VALID,18.8349,VALID,283,VALID,0,
2008-05-31, 02:50:00,VALID,915.944,VALID,0,VALID,100,VALID,-0.0679233,VALID,18.8282,VALID,283,VALID,0.359375,
2008-05-31, 02:51:00,VALID,915.94,VALID,0,VALID,100,VALID,-0.0339617,VALID,18.8317,VALID,283,VALID,0.0989583,
2008-05-31, 02:52:00,VALID,915.929,VALID,0,VALID,100,VALID,-0.0849042,VALID,18.822,VALID,283,VALID,0,
2008-05-31, 02:53:00,VALID,915.935,VALID,0,VALID,100,VALID,-0.0339617,VALID,18.8222,VALID,277,VALID,0,
2008-05-31, 02:54:00,VALID,915.936,VALID,0,VALID,100,VALID,-0.0169808,VALID,18.8252,VALID,275,VALID,0,
2008-05-31, 02:55:00,VALID,915.924,VALID,0,VALID,100,VALID,-0.0509425,VALID,18.822,VALID,275,VALID,0,
2008-05-31, 02:56:00,VALID,915.924,VALID,0,VALID,100,VALID,-0.0169808,VALID,18.8118,VALID,275,VALID,0,
2008-05-31, 02:57:00,VALID,915.937,VALID,0,VALID,100,VALID,-0.0169808,VALID,18.8085,VALID,275,VALID,0,
2008-05-31, 02:58:00,VALID,915.93,VALID,0,VALID,100,VALID,0,VALID,18.7993,VALID,275,VALID,0,
2008-05-31, 02:59:00,VALID,915.923,VALID,0,VALID,100,VALID,0,VALID,18.7993,VALID,275,VALID,0,
2008-05-31, 03:00:00,VALID,915.913,VALID,0,VALID,100,VALID,0,VALID,18.7921,VALID,275,VALID,0,
2008-05-31, 03:01:00,VALID,915.906,VALID,0,VALID,100,VALID,0.0339617,VALID,18.7788,VALID,275,VALID,0,
2008-05-31, 03:02:00,VALID,915.912,VALID,0,VALID,100,VALID,0,VALID,18.7724,VALID,275,VALID,0,
2008-05-31, 03:03:00,VALID,915.883,VALID,0,VALID,100,VALID,0,VALID,18.7599,VALID,275,VALID,0,
2008-05-31, 03:04:00,VALID,915.889,VALID,0,VALID,100,VALID,-0.0339617,VALID,18.7569,VALID,275,VALID,0,
2008-05-31, 03:05:00,VALID,915.888,VALID,0,VALID,100,VALID,-0.0169808,VALID,18.7334,VALID,275,VALID,0,
2008-05-31, 03:06:00,VALID,915.882,VALID,0,VALID,100,VALID,-0.0169808,VALID,18.7571,VALID,275,VALID,0,
2008-05-31, 03:07:00,VALID,915.884,VALID,0,VALID,100,VALID,0,VALID,18.7404,VALID,275,VALID,0,
2008-05-31, 03:08:00,VALID,915.854,VALID,0,VALID,100,VALID,0.0169808,VALID,18.7404,VALID,293,VALID,0,
2008-05-31, 03:09:00,VALID,915.849,VALID,0,VALID,100,VALID,0,VALID,18.7474,VALID,294,VALID,0,
2008-05-31, 03:10:00,VALID,915.82,VALID,0,VALID,100,VALID,-0.0169808,VALID,18.7341,VALID,294,VALID,0,
2008-05-31, 03:11:00,VALID,915.816,VALID,0,VALID,100,VALID,-0.0169808,VALID,18.7244,VALID,294,VALID,0,
2008-05-31, 03:12:00,VALID,915.811,VALID,0,VALID,100,VALID,0.0169808,VALID,18.7082,VALID,294,VALID,0,
2008-05-31, 03:13:00,VALID,915.794,VALID,0,VALID,100,VALID,0,VALID,18.6985,VALID,294,VALID,0,
2008-05-31, 03:14:00,VALID,915.789,VALID,0,VALID,100,VALID,0,VALID,18.682,VALID,294,VALID,0,
2008-05-31, 03:15:00,VALID,915.784,VALID,0,VALID,100,VALID,-0.0169808,VALID,18.6853,VALID,294,VALID,0,
2008-05-31, 03:16:00,VALID,915.769,VALID,0,VALID,100,VALID,0,VALID,18.6718,VALID,294,VALID,0,
2008-05-31, 03:17:00,VALID,915.767,VALID,0,VALID,100,VALID,0,VALID,18.6693,VALID,294,VALID,0,
2008-05-31, 03:18:00,VALID,915.76,VALID,0,VALID,100,VALID,-0.0169808,VALID,18.6857,VALID,294,VALID,0,
2008-05-31, 03:19:00,VALID,915.764,VALID,0,VALID,100,VALID,0,VALID,18.6883,VALID,294,VALID,0,
2008-05-31, 03:20:00,VALID,915.77,VALID,0,VALID,100,VALID,-0.0169808,VALID,18.7052,VALID,294,VALID,0,
2008-05-31, 03:21:00,VALID,915.755,VALID,0,VALID,100,VALID,0,VALID,18.6982,VALID,294,VALID,0,
2008-05-31, 03:22:00,VALID,915.752,VALID,0,VALID,100,VALID,0,VALID,18.6982,VALID,294,VALID,0,
2008-05-31, 03:23:00,VALID,915.747,VALID,0,VALID,100,VALID,-0.0169808,VALID,18.6964,VALID,294,VALID,0,
2008-05-31, 03:24:00,VALID,915.74,VALID,0,VALID,100,VALID,-0.0679233,VALID,18.6994,VALID,294,VALID,0,
2008-05-31, 03:25:00,VALID,915.736,VALID,0,VALID,100,VALID,-0.0169808,VALID,18.6989,VALID,294,VALID,0,
2008-05-31, 03:26:00,VALID,915.752,VALID,0,VALID,100,VALID,-0.0509425,VALID,18.6964,VALID,317,VALID,0,
2008-05-31, 03:27:00,VALID,915.747,VALID,0,VALID,100,VALID,-0.0169808,VALID,18.7027,VALID,16,VALID,0.810352,
2008-05-31, 03:28:00,VALID,915.746,VALID,0,VALID,100,VALID,-0.0679233,VALID,18.6932,VALID,24,VALID,1.17047,
2008-05-31, 03:29:00,VALID,915.729,VALID,0,VALID,100,VALID,-0.0509425,VALID,18.6929,VALID,30,VALID,1.04524,
2008-05-31, 03:30:00,VALID,915.735,VALID,0,VALID,100,VALID,-0.0509425,VALID,18.6927,VALID,28,VALID,0.836293,
2008-05-31, 03:31:00,VALID,915.72,VALID,0,VALID,100,VALID,-0.0169808,VALID,18.6864,VALID,28,VALID,0.619141,
2008-05-31, 03:32:00,VALID,915.719,VALID,0,VALID,100,VALID,-0.0339617,VALID,18.6932,VALID,28,VALID,0.334517,
2008-05-31, 03:33:00,VALID,915.722,VALID,0,VALID,100,VALID,-0.0679233,VALID,18.7031,VALID,28,VALID,0.00508721,
2008-05-31, 03:34:00,VALID,915.723,VALID,0,VALID,100,VALID,-0.101885,VALID,18.7159,VALID,28,VALID,0,
2008-05-31, 03:35:00,VALID,915.715,VALID,0,VALID,100,VALID,-0.0509425,VALID,18.6997,VALID,28,VALID,0,
2008-05-31, 03:36:00,VALID,915.712,VALID,0,VALID,100,VALID,-0.0849042,VALID,18.6769,VALID,28,VALID,0,
2008-05-31, 03:37:00,VALID,915.693,VALID,0,VALID,100,VALID,-0.0849042,VALID,18.667,VALID,22,VALID,0,
2008-05-31, 03:38:00,VALID,915.704,VALID,0,VALID,100,VALID,-0.0509425,VALID,18.6281,VALID,12,VALID,0,
2008-05-31, 03:39:00,VALID,915.7,VALID,0,VALID,100,VALID,-0.0339617,VALID,18.5959,VALID,12,VALID,0,
2008-05-31, 03:40:00,VALID,915.695,VALID,0,VALID,100,VALID,-0.0679233,VALID,18.5671,VALID,12,VALID,0,
2008-05-31, 03:41:00,VALID,915.71,VALID,0,VALID,100,VALID,-0.0679233,VALID,18.5535,VALID,12,VALID,0,
2008-05-31, 03:42:00,VALID,915.704,VALID,0,VALID,100,VALID,-0.0509425,VALID,18.5532,VALID,12,VALID,0,
2008-05-31, 03:43:00,VALID,915.704,VALID,0,VALID,100,VALID,-0.0339617,VALID,18.5567,VALID,12,VALID,0,
2008-05-31, 03:44:00,VALID,915.695,VALID,0,VALID,100,VALID,-0.0509425,VALID,18.5273,VALID,12,VALID,0,